| time (UTC) | temp F | wind direction | speed knots | gust knots | rain 1hr in | rain 24hr in | rain mn in | humidity % | barometer mb |
| 20260506182822 | 65 | 249 | 0.9 | 8.7 | 0.00 | 0.05 | 0.05 | 86 | 1008.0 |
| 20260506182321 | 67 | 237 | 0.9 | 9.6 | 0.00 | 0.05 | 0.05 | 83 | 1008.0 |
| 20260506181821 | 68 | 324 | 4.3 | 9.6 | 0.00 | 0.05 | 0.05 | 80 | 1007.9 |
| 20260506181322 | 67 | 179 | 2.6 | 7.0 | 0.00 | 0.05 | 0.05 | 80 | 1008.1 |
| 20260506180822 | 67 | 272 | 0.9 | 5.2 | 0.00 | 0.05 | 0.05 | 81 | 1008.2 |
| 20260506180321 | 67 | 230 | 0.0 | 3.5 | 0.01 | 0.05 | 0.05 | 81 | 1007.8 |
| 20260506175819 | 67 | 158 | 0.9 | 3.5 | 0.01 | 0.05 | 0.05 | 82 | 1008.1 |
| 20260506175319 | 66 | 255 | 1.7 | 3.5 | 0.01 | 0.05 | 0.05 | 83 | 1008.0 |
| 20260506174819 | 66 | 241 | 0.0 | 3.5 | 0.01 | 0.05 | 0.05 | 84 | 1008.1 |
| 20260506174319 | 65 | 127 | 0.9 | 3.5 | 0.02 | 0.05 | 0.05 | 86 | 1008.0 |
| 20260506173819 | 65 | 257 | 0.0 | 3.5 | 0.02 | 0.05 | 0.05 | 89 | 1007.9 |
| 20260506172819 | 66 | 24 | 0.0 | 1.7 | 0.03 | 0.05 | 0.05 | 90 | 1008.1 |
| 20260506172319 | 65 | 236 | 0.9 | 1.7 | 0.03 | 0.05 | 0.05 | 90 | 1008.2 |
| 20260506171819 | 65 | 243 | 0.9 | 6.1 | 0.04 | 0.05 | 0.05 | 91 | 1008.2 |
| 20260506171319 | 64 | 260 | 0.0 | 6.1 | 0.04 | 0.05 | 0.05 | 90 | 1008.2 |
| 20260506170819 | 64 | 286 | 0.0 | 2.6 | 0.05 | 0.05 | 0.05 | 91 | 1008.4 |
| 20260506170319 | 64 | 270 | 0.0 | 2.6 | 0.04 | 0.04 | 0.04 | 91 | 1008.6 |
| 20260506165819 | 64 | 358 | 0.0 | 2.6 | 0.04 | 0.04 | 0.04 | 90 | 1008.9 |
| 20260506165319 | 64 | 209 | 0.9 | 1.7 | 0.04 | 0.04 | 0.04 | 89 | 1009.2 |
| 20260506164819 | 65 | 232 | 0.0 | 2.6 | 0.04 | 0.04 | 0.04 | 89 | 1009.5 |
| 20260506164319 | 64 | 214 | 0.9 | 2.6 | 0.03 | 0.03 | 0.03 | 88 | 1009.7 |
| 20260506163819 | 64 | 253 | 1.7 | 3.5 | 0.03 | 0.03 | 0.03 | 87 | 1009.5 |
| 20260506163318 | 65 | 279 | 0.9 | 3.5 | 0.02 | 0.02 | 0.02 | 87 | 1009.4 |
| 20260506162818 | 65 | 187 | 0.9 | 1.7 | 0.02 | 0.02 | 0.02 | 86 | 1009.6 |
| 20260506162318 | 65 | 260 | 1.7 | 3.5 | 0.02 | 0.02 | 0.02 | 85 | 1009.4 |
| 20260506161818 | 66 | 230 | 0.0 | 3.5 | 0.01 | 0.01 | 0.01 | 83 | 1009.8 |
| 20260506161318 | 67 | 179 | 0.9 | 6.1 | 0.01 | 0.01 | 0.01 | 80 | 1009.8 |
| 20260506160819 | 67 | 246 | 1.7 | 7.0 | 0.00 | 0.00 | 0.00 | 77 | 1009.7 |
| 20260506155808 | 70 | 152 | 0.9 | 6.1 | 0.00 | 0.00 | 0.00 | 71 | 1010.0 |
| 20260506155308 | 70 | 33 | 0.9 | 7.0 | 0.00 | 0.00 | 0.00 | 68 | 1009.6 |
| 20260506154805 | 71 | 191 | 1.7 | 7.0 | 0.00 | 0.00 | 0.00 | 67 | 1009.8 |
| 20260506153806 | 72 | 271 | 6.1 | 7.8 | 0.00 | 0.00 | 0.00 | 65 | 1009.7 |
| 20260506152807 | 72 | 356 | 0.9 | 7.8 | 0.00 | 0.00 | 0.00 | 65 | 1009.4 |
| 20260506152307 | 71 | 261 | 3.5 | 6.1 | 0.00 | 0.00 | 0.00 | 66 | 1009.5 |
| 20260506151807 | 71 | 194 | 3.5 | 7.8 | 0.00 | 0.00 | 0.00 | 66 | 1009.7 |
| 20260506151307 | 71 | 244 | 1.7 | 7.8 | 0.00 | 0.00 | 0.00 | 66 | 1009.7 |
| 20260506150807 | 71 | 136 | 1.7 | 7.0 | 0.00 | 0.00 | 0.00 | 66 | 1009.8 |
| 20260506145807 | 72 | 247 | 4.3 | 12.2 | 0.00 | 0.00 | 0.00 | 65 | 1009.7 |
| 20260506145307 | 72 | 333 | 2.6 | 12.2 | 0.00 | 0.00 | 0.00 | 65 | 1009.8 |
| 20260506144807 | 72 | 249 | 1.7 | 9.6 | 0.00 | 0.00 | 0.00 | 65 | 1010.0 |
| 20260506144308 | 73 | 359 | 1.7 | 6.1 | 0.00 | 0.00 | 0.00 | 64 | 1010.1 |
| 20260506143306 | 73 | 221 | 1.7 | 7.8 | 0.00 | 0.00 | 0.00 | 65 | 1009.8 |
| 20260506142806 | 73 | 247 | 5.2 | 7.8 | 0.00 | 0.00 | 0.00 | 64 | 1009.8 |
| 20260506142306 | 72 | 226 | 0.9 | 5.2 | 0.00 | 0.00 | 0.00 | 66 | 1009.6 |
| 20260506141806 | 71 | 169 | 0.9 | 7.0 | 0.00 | 0.00 | 0.00 | 66 | 1009.8 |
| 20260506140307 | 71 | 265 | 1.7 | 11.3 | 0.00 | 0.00 | 0.00 | 67 | 1009.9 |
| 20260506135808 | 71 | 265 | 4.3 | 7.8 | 0.00 | 0.00 | 0.00 | 67 | 1009.9 |
| 20260506135307 | 71 | 196 | 2.6 | 6.1 | 0.00 | 0.00 | 0.00 | 67 | 1009.7 |
| 20260506134807 | 71 | 220 | 0.9 | 7.8 | 0.00 | 0.00 | 0.00 | 67 | 1009.3 |
| 20260506134308 | 71 | 255 | 1.7 | 7.8 | 0.00 | 0.00 | 0.00 | 67 | 1009.7 |
| 20260506133306 | 71 | 236 | 1.7 | 7.0 | 0.00 | 0.00 | 0.00 | 67 | 1010.0 |
| 20260506132806 | 71 | 244 | 3.5 | 7.0 | 0.00 | 0.00 | 0.00 | 68 | 1009.9 |
| 20260506131806 | 71 | 223 | 1.7 | 9.6 | 0.00 | 0.00 | 0.00 | 68 | 1009.9 |
| 20260506131306 | 70 | 123 | 3.5 | 9.6 | 0.00 | 0.00 | 0.00 | 69 | 1010.1 |
| 20260506130806 | 70 | 306 | 0.9 | 6.1 | 0.00 | 0.00 | 0.00 | 70 | 1009.9 |
| 20260506125806 | 69 | 301 | 1.7 | 7.8 | 0.00 | 0.00 | 0.00 | 71 | 1009.7 |
| 20260506125307 | 69 | 179 | 1.7 | 7.8 | 0.00 | 0.00 | 0.00 | 71 | 1009.9 |
| 20260506124306 | 69 | 238 | 1.7 | 7.0 | 0.00 | 0.00 | 0.00 | 71 | 1009.8 |
| 20260506123806 | 69 | 263 | 4.3 | 7.0 | 0.00 | 0.00 | 0.00 | 71 | 1010.0 |
| 20260506123307 | 68 | 306 | 0.9 | 5.2 | 0.00 | 0.00 | 0.00 | 72 | 1010.0 |
| 20260506122806 | 67 | 291 | 0.9 | 6.1 | 0.00 | 0.00 | 0.00 | 74 | 1009.8 |
| 20260506122306 | 67 | 171 | 0.9 | 5.2 | 0.00 | 0.00 | 0.00 | 74 | 1009.8 |
| 20260506121306 | 67 | 67 | 1.7 | 6.1 | 0.00 | 0.00 | 0.00 | 74 | 1010.2 |
| 20260506120807 | 67 | 231 | 0.9 | 5.2 | 0.00 | 0.00 | 0.00 | 74 | 1010.1 |
| 20260506120307 | 67 | 330 | 0.9 | 6.1 | 0.00 | 0.00 | 0.00 | 75 | 1010.1 |
| 20260506114754 | 67 | 246 | 1.7 | 6.1 | 0.00 | 0.00 | 0.00 | 75 | 1010.1 |
| 20260506114254 | 67 | 225 | 2.6 | 5.2 | 0.00 | 0.00 | 0.00 | 76 | 1010.6 |
| 20260506113755 | 67 | 75 | 0.9 | 5.2 | 0.00 | 0.00 | 0.00 | 76 | 1010.1 |
| 20260506113242 | 67 | 73 | 1.7 | 5.2 | 0.00 | 0.00 | 0.00 | 76 | 1010.0 |
| 20260506112741 | 67 | 244 | 1.7 | 3.5 | 0.00 | 0.00 | 0.00 | 76 | 1010.4 |
| 20260506112241 | 66 | 277 | 0.9 | 3.5 | 0.00 | 0.00 | 0.00 | 77 | 1010.3 |
| 20260506111729 | 65 | 339 | 1.7 | 3.5 | 0.00 | 0.00 | 0.00 | 78 | 1010.3 |
| 20260506111229 | 65 | 229 | 2.6 | 7.0 | 0.00 | 0.00 | 0.00 | 78 | 1010.4 |
| 20260506110217 | 65 | 85 | 0.9 | 7.0 | 0.00 | 0.00 | 0.00 | 79 | 1010.0 |
| 20260506105718 | 65 | 238 | 1.7 | 7.8 | 0.00 | 0.00 | 0.00 | 79 | 1010.1 |
| 20260506105217 | 64 | 269 | 0.9 | 7.8 | 0.00 | 0.00 | 0.00 | 80 | 1010.1 |
| 20260506104717 | 64 | 315 | 1.7 | 3.5 | 0.00 | 0.00 | 0.00 | 81 | 1010.2 |
| 20260506104218 | 64 | 10 | 0.9 | 2.6 | 0.00 | 0.00 | 0.00 | 81 | 1010.0 |
| 20260506103718 | 64 | 260 | 0.0 | 3.5 | 0.00 | 0.00 | 0.00 | 81 | 1010.2 |
| 20260506103217 | 64 | 243 | 0.0 | 5.2 | 0.00 | 0.00 | 0.00 | 81 | 1010.0 |
| 20260506102217 | 64 | 59 | 0.0 | 3.5 | 0.00 | 0.00 | 0.00 | 81 | 1010.2 |
| 20260506101717 | 64 | 329 | 1.7 | 5.2 | 0.00 | 0.00 | 0.00 | 81 | 1010.0 |
| 20260506100717 | 64 | 179 | 1.7 | 6.1 | 0.00 | 0.00 | 0.00 | 81 | 1009.9 |
| 20260506100217 | 64 | 277 | 0.9 | 3.5 | 0.00 | 0.00 | 0.00 | 81 | 1009.9 |
| 20260506095217 | 64 | 217 | 1.7 | 5.2 | 0.00 | 0.00 | 0.00 | 81 | 1009.8 |
| 20260506094705 | 64 | 260 | 1.7 | 5.2 | 0.00 | 0.00 | 0.00 | 81 | 1010.1 |
| 20260506094204 | 64 | 320 | 0.9 | 6.1 | 0.00 | 0.00 | 0.00 | 81 | 1009.8 |
| 20260506093705 | 64 | 8 | 0.9 | 6.1 | 0.00 | 0.00 | 0.00 | 81 | 1009.7 |
| 20260506093206 | 64 | 338 | 0.9 | 2.6 | 0.00 | 0.00 | 0.00 | 81 | 1009.6 |
| 20260506092705 | 64 | 193 | 1.7 | 2.6 | 0.00 | 0.00 | 0.00 | 82 | 1010.0 |
| 20260506092205 | 64 | 22 | 1.7 | 2.6 | 0.00 | 0.00 | 0.00 | 82 | 1009.8 |
| 20260506091705 | 64 | 349 | 0.0 | 2.6 | 0.00 | 0.00 | 0.00 | 81 | 1009.8 |
| 20260506090707 | 64 | 30 | 2.6 | 3.5 | 0.00 | 0.00 | 0.00 | 81 | 1009.9 |
| 20260506085704 | 64 | 357 | 0.9 | 5.2 | 0.00 | 0.00 | 0.00 | 81 | 1009.9 |
| 20260506085205 | 64 | 182 | 1.7 | 5.2 | 0.00 | 0.00 | 0.00 | 81 | 1010.0 |
| 20260506084706 | 64 | 123 | 0.9 | 2.6 | 0.00 | 0.00 | 0.00 | 81 | 1009.8 |
| 20260506083705 | 64 | 245 | 0.0 | 2.6 | 0.00 | 0.00 | 0.00 | 81 | 1010.1 |
| 20260506083205 | 64 | 107 | 0.9 | 2.6 | 0.00 | 0.00 | 0.00 | 81 | 1010.0 |
| 20260506082705 | 64 | 301 | 0.9 | 7.0 | 0.00 | 0.00 | 0.00 | 81 | 1010.0 |
| 20260506082205 | 64 | 184 | 3.5 | 7.0 | 0.00 | 0.00 | 0.00 | 81 | 1010.3 |
| 20260506081706 | 64 | 231 | 0.9 | 7.8 | 0.00 | 0.00 | 0.00 | 80 | 1010.1 |
| 20260506081207 | 64 | 203 | 0.9 | 7.8 | 0.00 | 0.00 | 0.00 | 80 | 1010.3 |
| 20260506080707 | 64 | 156 | 0.9 | 2.6 | 0.00 | 0.00 | 0.00 | 80 | 1010.1 |
| 20260506080207 | 64 | 186 | 0.9 | 5.2 | 0.00 | 0.00 | 0.00 | 80 | 1010.1 |
| 20260506072705 | 65 | 42 | 0.9 | 6.1 | 0.00 | 0.00 | 0.00 | 79 | 1010.3 |
| 20260506071705 | 65 | 211 | 0.0 | 3.5 | 0.00 | 0.00 | 0.00 | 79 | 1010.4 |
| 20260506071206 | 65 | 27 | 0.9 | 1.7 | 0.00 | 0.00 | 0.00 | 79 | 1010.4 |
| 20260506070706 | 65 | 239 | 0.0 | 3.5 | 0.00 | 0.00 | 0.00 | 78 | 1010.3 |
| 20260506070206 | 65 | 218 | 0.0 | 3.5 | 0.00 | 0.00 | 0.00 | 77 | 1010.4 |
| 20260506062206 | 66 | 207 | 0.9 | 2.6 | 0.00 | 0.00 | 0.00 | 76 | 1010.5 |
| 20260506061706 | 66 | 299 | 0.0 | 1.7 | 0.00 | 0.00 | 0.00 | 76 | 1010.4 |
| 20260506061206 | 66 | 247 | 0.0 | 2.6 | 0.00 | 0.00 | 0.00 | 76 | 1010.4 |
| 20260506060705 | 66 | 98 | 1.7 | 2.6 | 0.00 | 0.00 | 0.00 | 76 | 1010.3 |
| 20260506060205 | 66 | 310 | 0.9 | 3.5 | 0.00 | 0.00 | 0.00 | 75 | 1010.2 |
| 20260506051130 | 67 | 158 | 0.9 | 5.2 | 0.00 | 0.00 | 0.00 | 73 | 1010.8 |
| 20260506050118 | 67 | 278 | 0.0 | 8.7 | 0.00 | 0.00 | 0.00 | 72 | 1010.7 |
| 20260506045118 | 67 | 253 | 0.9 | 6.1 | 0.00 | 0.00 | 0.00 | 71 | 1010.8 |
| 20260506044618 | 68 | 183 | 0.9 | 6.1 | 0.00 | 0.00 | 0.00 | 71 | 1010.8 |
| 20260506044117 | 67 | 249 | 0.0 | 3.5 | 0.00 | 0.00 | 0.00 | 71 | 1010.8 |
| 20260506043617 | 68 | 207 | 1.7 | 6.1 | 0.00 | 0.00 | 0.00 | 70 | 1011.1 |
| 20260506042618 | 68 | 56 | 0.9 | 6.1 | 0.00 | 0.00 | 0.00 | 69 | 1011.0 |
| 20260506042119 | 68 | 253 | 1.7 | 5.2 | 0.00 | 0.00 | 0.00 | 70 | 1010.7 |
| 20260506041618 | 68 | 9 | 0.9 | 5.2 | 0.00 | 0.00 | 0.00 | 69 | 1010.9 |
| 20260506041118 | 68 | 207 | 1.7 | 3.5 | 0.00 | 0.00 | 0.00 | 69 | 1010.8 |
| 20260506040118 | 68 | 137 | 0.9 | 7.8 | 0.00 | 0.00 | 0.00 | 68 | 1010.9 |
| 20260506035619 | 68 | 249 | 1.7 | 7.8 | 0.00 | 0.00 | 0.00 | 68 | 1010.6 |
| 20260506035118 | 68 | 311 | 0.9 | 6.1 | 0.00 | 0.00 | 0.00 | 68 | 1010.7 |
| 20260506034618 | 68 | 2 | 0.9 | 3.5 | 0.00 | 0.00 | 0.00 | 67 | 1011.1 |
| 20260506034119 | 69 | 325 | 0.9 | 7.0 | 0.00 | 0.00 | 0.00 | 67 | 1010.9 |
| 20260506033618 | 69 | 109 | 0.9 | 7.0 | 0.00 | 0.00 | 0.00 | 66 | 1010.7 |
| 20260506033118 | 69 | 105 | 1.7 | 6.1 | 0.00 | 0.00 | 0.00 | 66 | 1010.9 |
| 20260506032618 | 69 | 272 | 2.6 | 5.2 | 0.00 | 0.00 | 0.00 | 66 | 1010.6 |
| 20260506032117 | 69 | 336 | 0.9 | 7.0 | 0.00 | 0.00 | 0.00 | 65 | 1010.8 |
| 20260506031617 | 69 | 313 | 1.7 | 7.0 | 0.00 | 0.00 | 0.00 | 64 | 1010.8 |
| 20260506030617 | 70 | 257 | 3.5 | 7.0 | 0.00 | 0.00 | 0.00 | 63 | 1010.5 |
| 20260506030117 | 70 | 325 | 1.7 | 6.1 | 0.00 | 0.00 | 0.00 | 63 | 1010.6 |
| 20260506025619 | 70 | 11 | 0.9 | 6.1 | 0.00 | 0.00 | 0.00 | 62 | 1011.2 |
| 20260506025119 | 70 | 160 | 0.9 | 6.1 | 0.00 | 0.00 | 0.00 | 61 | 1010.7 |
| 20260506024118 | 70 | 289 | 0.9 | 5.2 | 0.00 | 0.00 | 0.00 | 61 | 1010.9 |
| 20260506023618 | 70 | 151 | 0.9 | 5.2 | 0.00 | 0.00 | 0.00 | 61 | 1010.8 |
| 20260506023117 | 71 | 328 | 1.7 | 6.1 | 0.00 | 0.00 | 0.00 | 60 | 1010.8 |
| 20260506022617 | 71 | 179 | 0.9 | 6.1 | 0.00 | 0.00 | 0.00 | 60 | 1010.7 |
| 20260506020618 | 71 | 116 | 1.7 | 7.0 | 0.00 | 0.00 | 0.00 | 60 | 1010.7 |
| 20260506020118 | 71 | 333 | 0.9 | 5.2 | 0.00 | 0.00 | 0.00 | 60 | 1010.9 |
| 20260506015618 | 71 | 154 | 1.7 | 6.1 | 0.00 | 0.00 | 0.00 | 60 | 1010.4 |
| 20260506015118 | 71 | 36 | 2.6 | 6.1 | 0.00 | 0.00 | 0.00 | 60 | 1010.5 |
| 20260506014617 | 71 | 211 | 0.9 | 6.1 | 0.00 | 0.00 | 0.00 | 59 | 1010.4 |
| 20260506014117 | 72 | 105 | 0.9 | 8.7 | 0.00 | 0.00 | 0.00 | 59 | 1010.5 |
| 20260506013617 | 72 | 309 | 4.3 | 11.3 | 0.00 | 0.00 | 0.00 | 59 | 1010.7 |
| 20260506013117 | 72 | 82 | 2.6 | 11.3 | 0.00 | 0.00 | 0.00 | 59 | 1010.4 |
| 20260506012617 | 72 | 59 | 0.0 | 3.5 | 0.00 | 0.00 | 0.00 | 58 | 1010.6 |
| 20260506011106 | 73 | 165 | 1.7 | 6.1 | 0.00 | 0.00 | 0.00 | 58 | 1010.2 |
| 20260506010606 | 73 | 164 | 1.7 | 7.0 | 0.00 | 0.00 | 0.00 | 57 | 1010.1 |
| 20260506005606 | 74 | 57 | 1.7 | 5.2 | 0.00 | 0.00 | 0.00 | 55 | 1009.9 |
| 20260506005106 | 74 | 58 | 0.9 | 7.8 | 0.00 | 0.00 | 0.00 | 53 | 1009.7 |
| 20260506004606 | 75 | 192 | 0.9 | 7.8 | 0.00 | 0.00 | 0.00 | 50 | 1009.5 |
| 20260506004106 | 76 | 19 | 0.9 | 7.0 | 0.00 | 0.00 | 0.00 | 48 | 1009.7 |
| 20260506002605 | 76 | 43 | 1.7 | 3.5 | 0.00 | 0.00 | 0.00 | 46 | 1009.7 |
| 20260506001605 | 77 | 77 | 0.9 | 7.0 | 0.00 | 0.00 | 0.00 | 45 | 1009.4 |
| 20260506000606 | 78 | 163 | 0.9 | 3.5 | 0.00 | 0.00 | 0.00 | 44 | 1009.3 |
| 20260506000108 | 78 | 223 | 0.9 | 6.1 | 0.00 | 0.00 | 0.00 | 43 | 1009.6 |
| 20260505235606 | 78 | 306 | 3.5 | 6.1 | 0.00 | 0.00 | 0.00 | 43 | 1009.1 |
| 20260505235105 | 78 | 68 | 3.5 | 7.0 | 0.00 | 0.00 | 0.00 | 43 | 1009.3 |
| 20260505233606 | 79 | 294 | 1.7 | 6.1 | 0.00 | 0.00 | 0.00 | 42 | 1009.2 |
| 20260505233105 | 79 | 35 | 0.9 | 8.7 | 0.00 | 0.00 | 0.00 | 41 | 1009.1 |
| 20260505232605 | 79 | 275 | 3.5 | 8.7 | 0.00 | 0.00 | 0.00 | 41 | 1009.1 |
| 20260505231554 | 80 | 250 | 0.9 | 3.5 | 0.00 | 0.00 | 0.00 | 39 | 1008.7 |
| 20260505231053 | 81 | 250 | 0.9 | 7.8 | 0.00 | 0.00 | 0.00 | 37 | 1008.5 |
| 20260505230553 | 81 | 219 | 1.7 | 7.8 | 0.00 | 0.00 | 0.00 | 36 | 1008.7 |
| 20260505225541 | 81 | 223 | 3.5 | 11.3 | 0.00 | 0.00 | 0.00 | 34 | 1008.4 |
| 20260505224530 | 81 | 221 | 3.5 | 11.3 | 0.00 | 0.00 | 0.00 | 34 | 1008.4 |
| 20260505224029 | 82 | 121 | 2.6 | 12.2 | 0.00 | 0.00 | 0.00 | 34 | 1008.3 |
| 20260505223528 | 82 | 163 | 1.7 | 12.2 | 0.00 | 0.00 | 0.00 | 33 | 1008.6 |
| 20260505223017 | 82 | 224 | 2.6 | 11.3 | 0.00 | 0.00 | 0.00 | 32 | 1008.5 |
| 20260505222518 | 83 | 239 | 4.3 | 13.0 | 0.00 | 0.00 | 0.00 | 31 | 1008.5 |
| 20260505222019 | 83 | 203 | 5.2 | 14.8 | 0.00 | 0.00 | 0.00 | 31 | 1008.4 |
| 20260505221518 | 83 | 61 | 1.7 | 14.8 | 0.00 | 0.00 | 0.00 | 30 | 1008.1 |
| 20260505221017 | 84 | 138 | 4.3 | 13.0 | 0.00 | 0.00 | 0.00 | 30 | 1008.5 |
| 20260505220517 | 84 | 289 | 5.2 | 9.6 | 0.00 | 0.00 | 0.00 | 30 | 1008.2 |
| 20260505220018 | 84 | 265 | 3.5 | 9.6 | 0.00 | 0.00 | 0.00 | 31 | 1008.0 |
| 20260505215506 | 85 | 16 | 2.6 | 9.6 | 0.00 | 0.00 | 0.00 | 32 | 1008.0 |
| 20260505215007 | 84 | 107 | 1.7 | 6.1 | 0.00 | 0.00 | 0.00 | 35 | 1007.8 |
| 20260505214508 | 85 | 152 | 1.7 | 7.8 | 0.00 | 0.00 | 0.00 | 36 | 1007.7 |
| 20260505214007 | 84 | 245 | 1.7 | 9.6 | 0.00 | 0.00 | 0.00 | 36 | 1008.0 |
| 20260505213505 | 84 | 141 | 2.6 | 9.6 | 0.00 | 0.00 | 0.00 | 36 | 1007.8 |
| 20260505213007 | 84 | 267 | 1.7 | 8.7 | 0.00 | 0.00 | 0.00 | 37 | 1007.7 |
| 20260505211953 | 85 | 203 | 2.6 | 12.2 | 0.00 | 0.00 | 0.00 | 37 | 1007.8 |
| 20260505210953 | 85 | 240 | 0.9 | 12.2 | 0.00 | 0.00 | 0.00 | 35 | 1007.9 |
| 20260505210453 | 84 | 330 | 2.6 | 9.6 | 0.00 | 0.00 | 0.00 | 35 | 1007.9 |
| 20260505205954 | 85 | 243 | 1.7 | 13.9 | 0.00 | 0.00 | 0.00 | 35 | 1007.9 |
| 20260505205454 | 85 | 103 | 7.0 | 13.9 | 0.00 | 0.00 | 0.00 | 35 | 1007.9 |
| 20260505204953 | 85 | 187 | 2.6 | 12.2 | 0.00 | 0.00 | 0.00 | 35 | 1007.7 |
| 20260505204441 | 85 | 60 | 1.7 | 8.7 | 0.00 | 0.00 | 0.00 | 36 | 1007.7 |
| 20260505203440 | 85 | 256 | 3.5 | 12.2 | 0.00 | 0.00 | 0.00 | 34 | 1007.8 |
| 20260505202928 | 86 | 337 | 1.7 | 12.2 | 0.00 | 0.00 | 0.00 | 34 | 1007.9 |
| 20260505202428 | 86 | 239 | 5.2 | 8.7 | 0.00 | 0.00 | 0.00 | 34 | 1007.9 |
| 20260505201929 | 86 | 150 | 1.7 | 11.3 | 0.00 | 0.00 | 0.00 | 34 | 1007.9 |
| 20260505201417 | 85 | 159 | 3.5 | 11.3 | 0.00 | 0.00 | 0.00 | 34 | 1007.7 |
| 20260505200917 | 85 | 274 | 0.9 | 9.6 | 0.00 | 0.00 | 0.00 | 34 | 1007.9 |
| 20260505195417 | 85 | 226 | 0.9 | 16.5 | 0.00 | 0.00 | 0.00 | 35 | 1008.1 |
| 20260505194918 | 87 | 167 | 2.6 | 7.8 | 0.00 | 0.00 | 0.00 | 32 | 1007.9 |
| 20260505194417 | 87 | 302 | 3.5 | 9.6 | 0.00 | 0.00 | 0.00 | 34 | 1008.3 |
| 20260505193917 | 86 | 271 | 1.7 | 11.3 | 0.00 | 0.00 | 0.00 | 34 | 1008.1 |
| 20260505193418 | 86 | 286 | 1.7 | 11.3 | 0.00 | 0.00 | 0.00 | 34 | 1008.5 |
| 20260505192416 | 86 | 100 | 1.7 | 7.0 | 0.00 | 0.00 | 0.00 | 35 | 1008.3 |
| 20260505191916 | 86 | 160 | 4.3 | 8.7 | 0.00 | 0.00 | 0.00 | 35 | 1008.4 |
| 20260505191416 | 86 | 239 | 3.5 | 9.6 | 0.00 | 0.00 | 0.00 | 36 | 1008.5 |
| 20260505190916 | 86 | 37 | 1.7 | 9.6 | 0.00 | 0.00 | 0.00 | 35 | 1008.5 |
| 20260505190416 | 86 | 307 | 1.7 | 9.6 | 0.00 | 0.00 | 0.00 | 37 | 1008.7 |
| 20260505185917 | 87 | 193 | 3.5 | 7.8 | 0.00 | 0.00 | 0.00 | 35 | 1008.9 |
| 20260505184420 | 86 | 79 | 1.7 | 7.0 | 0.00 | 0.00 | 0.00 | 36 | 1009.3 |
| 20260505183916 | 87 | 248 | 3.5 | 6.1 | 0.00 | 0.00 | 0.00 | 37 | 1009.2 |
| 20260505183416 | 87 | 245 | 0.9 | 6.1 | 0.00 | 0.00 | 0.00 | 38 | 1009.3 |